Central Park, NY

1:52 AM EDT on April 24, 2017 (GMT -0400)
Central Park

Weather History for KNYC - February, 2013

Change the Weather History Date:

Thursday, February 28, 2013

  Actual Average Record
Temperature  
Mean Temperature 45 °F 38 °F  
Max Temperature 51 °F 45 °F 67 °F (1976)
Min Temperature 39 °F 31 °F 5 °F (1934)
Degree Days  
Heating Degree Days 20 27  
Month to date heating degree days 864 832  
Since 1 July heating degree days 3373 3522  
Cooling Degree Days 0 0  
Month to date cooling degree days 0 0  
Year to date cooling degree days 0 0  
Moisture  
Dew Point 32 °F    
Average Humidity 58    
Maximum Humidity 70    
Minimum Humidity 46    
Precipitation  
Precipitation T in 0.12 in 1.21 in (1910)
Month to date precipitation 4.25 3.09  
Year to date precipitation 7.01 6.74  
Snow  
Snow 0.00 in 0.30 in 4.80 in (2005)
Month to date snowfall 12.2 9.2  
Since 1 July snowfall 18.8 21.3  
Snow Depth 0.00 in    
Sea Level Pressure  
Sea Level Pressure 29.59 in    
Wind  
Wind Speed 5 mph (West)    
Max Wind Speed 12 mph    
Max Gust Speed 19 mph    
Visibility 10 miles    
Events Rain    
T = Trace of Precipitation, MM = Missing Value Source: NWS Daily Summary

Daily Weather History Graph

Daily Weather History Graph

Search for Another Location

Airport or City:

Trip Planner

Search our weather history database for the weather conditions in past years. The results will help you decide how hot, cold, wet, or windy it might be!

Date:

Astronomy

Feb. 28, 2013 Rise Set
Actual Time 6:31 AM EST 5:46 PM EST
Civil Twilight 6:03 AM EST 6:13 PM EST
Nautical Twilight 5:31 AM EST 6:45 PM EST
Astronomical Twilight 5:00 AM EST 7:17 PM EST
Moon 9:12 PM EST (2/28) 7:37 AM EST (2/28)
Length of Visible Light 12h 10m
Length of Day
11h 15m
Waning Gibbous, 91% of the Moon is Illuminated
Feb 28
Waning Gibbous
Mar 4
Last Quarter
Mar 11
New
Mar 19
First Quarter
Mar 27
Full

Hourly Weather History & Observations

Time (EST) Temp. Windchill Dew Point Humidity Pressure Visibility Wind Dir Wind Speed Gust Speed Precip Events Conditions
12:51 AM 44.1 °F - 35.1 °F 71% 29.62 in 10.0 mi North - - N/A   Overcast
1:51 AM 45.0 °F - 35.1 °F 68% 29.61 in 10.0 mi Calm Calm - N/A   Overcast
2:51 AM 45.0 °F 43.5 °F 35.1 °F 68% 29.60 in 10.0 mi Variable 3.5 mph - N/A   Overcast
3:51 AM 45.0 °F 43.5 °F 35.1 °F 68% 29.60 in 10.0 mi Variable 3.5 mph - N/A   Overcast
4:51 AM 45.0 °F 42.6 °F 34.0 °F 65% 29.60 in 10.0 mi SSW 4.6 mph - N/A   Overcast
5:51 AM 44.1 °F 42.5 °F 35.1 °F 71% 29.60 in 10.0 mi West 3.5 mph - N/A   Overcast
6:51 AM 43.0 °F 40.3 °F 36.0 °F 76% 29.61 in 7.0 mi West 4.6 mph - 0.00 in Rain Light Rain
7:44 AM 43.0 °F 40.3 °F 35.1 °F 74% 29.63 in 9.0 mi West 4.6 mph - 0.00 in   Overcast
7:51 AM 44.1 °F 42.5 °F 35.1 °F 71% 29.61 in 9.0 mi Variable 3.5 mph - 0.00 in   Overcast
8:07 AM 44.1 °F 39.5 °F 35.1 °F 71% 29.64 in 10.0 mi West 8.1 mph - N/A   Mostly Cloudy
8:51 AM 44.1 °F - 34.0 °F 68% 29.62 in 10.0 mi Calm Calm - N/A   Overcast
9:51 AM 45.0 °F 42.6 °F 35.1 °F 68% 29.62 in 10.0 mi Variable 4.6 mph - N/A   Mostly Cloudy
10:51 AM 46.9 °F - 34.0 °F 61% 29.59 in 10.0 mi Variable 3.5 mph - N/A   Clear
11:51 AM 48.9 °F - 32.0 °F 52% 29.57 in 10.0 mi West 6.9 mph - N/A   Clear
12:51 PM 48.0 °F - 30.0 °F 50% 29.55 in 10.0 mi Variable 3.5 mph - N/A   Overcast
1:51 PM 48.0 °F - 28.9 °F 48% 29.55 in 10.0 mi Calm Calm - N/A   Overcast
2:51 PM 46.9 °F - 28.0 °F 48% 29.55 in 10.0 mi Variable 4.6 mph - N/A   Overcast
3:51 PM 46.0 °F 43.1 °F 28.9 °F 51% 29.55 in 10.0 mi WNW 5.8 mph - N/A   Overcast
4:51 PM 45.0 °F 40.1 °F 28.9 °F 53% 29.55 in 10.0 mi WNW 9.2 mph - N/A   Overcast
5:51 PM 45.0 °F 43.5 °F 28.0 °F 52% 29.56 in 10.0 mi Variable 3.5 mph - N/A   Overcast
6:51 PM 44.1 °F 40.8 °F 28.9 °F 55% 29.57 in 10.0 mi Variable 5.8 mph - N/A   Overcast
7:51 PM 44.1 °F 40.8 °F 26.1 °F 49% 29.58 in 10.0 mi West 5.8 mph - N/A   Overcast
8:51 PM 43.0 °F 39.5 °F 28.0 °F 56% 29.60 in 10.0 mi WNW 5.8 mph - N/A   Overcast
9:51 PM 41.0 °F 36.4 °F 28.9 °F 62% 29.60 in 10.0 mi WNW 6.9 mph - N/A   Overcast
10:51 PM 39.9 °F 35.1 °F 28.9 °F 65% 29.61 in 10.0 mi Variable 6.9 mph 17.3 mph N/A   Overcast
11:51 PM 39.0 °F 33.4 °F 28.9 °F 67% 29.60 in 10.0 mi NW 8.1 mph - N/A   Clear